x

Nantucket Sound (44020) Wave Buoy

6:50am - Sun 28th Aug 2016 All times are EDT. -4 hours from GMT.

  • Sig Wave height 0.3ft
  • Average Period 4s
  • Wind
    4mph
  • Sea Temp 75°f
  • Air Temp 72°f
  • Sea Pressure 1025mb
  • Nantucket Sound
  • Nantucket Sound

More Historic Weather Station data

Upgrade to MSW Pro to gain access to the past 30 days of data for over 8000 Wavebouys and Weather Stations around the globe.

Join Pro

Comparision Forecast

View Surf forecast
   
Sun 08/28 6:50am 0.3ft  -  4s 4
mph
1025mb 75f 72f
5:50am 0.3ft  -  4s 2 4 mph 1024.4mb 75f 71f
4:50am 0.3ft  -  4s 2
mph
1024.2mb 75f 71f
3:50am 0.3ft  -  4s 2 4 mph 1023.9mb 75f 71f
2:50am 0.3ft  -  5s 2
mph
1024.1mb 74f 70f
1:50am 0.3ft  -  5s 4
mph
1024.4mb 74f 70f
12:50am 0.3ft  -  4s 2 4 mph 1024.4mb 74f 71f
Sat 08/27 11:50pm 0.3ft  -  4s 2
mph
1024.2mb 75f 71f
10:50pm 0.7ft  -  4s 4
mph
1024.2mb 75f 71f
9:50pm 0.7ft  -  4s 7
mph
1023.9mb 75f 71f
8:50pm 0.7ft  -  3s 9 11 mph 1022.9mb 75f 72f
7:50pm 1ft 2s 3s 7 9 mph 1022.3mb 75f 72f
6:50pm 1.3ft 3s 3s 11 16 mph 1021.7mb 75f 73f
5:50pm 1.3ft 3s 3s 13 16 mph 1021.5mb 75f 73f
4:50pm 1ft 3s 3s 13
mph
1021.6mb 76f 73f
3:50pm 1ft 3s 3s 13 16 mph 1021.3mb 76f 73f
2:50pm 1ft 3s 3s 13 18 mph 1021.4mb 76f 73f
1:50pm 1ft 3s 3s 11 13 mph 1021.4mb 75f 73f
12:50pm 1ft 3s 3s 13 16 mph 1021.4mb 75f 74f
11:50am 1ft 2s 3s 9
mph
1021.6mb 75f 75f
10:50am 1ft 5s 3s 9 11 mph 1021.5mb 75f 75f
9:50am 1ft 3s 3s 13
mph
1021mb 75f 75f
8:50am 1.3ft 3s 3s 13 18 mph 1020.3mb 75f 75f
7:50am 1.3ft 3s 3s 13 16 mph 1019.9mb 74f 75f
6:50am 1.3ft 3s 3s 13 18 mph 1019.3mb 74f 75f
5:50am 1.3ft 3s 3s 13 18 mph 1018.2mb 75f 75f
4:50am 1.3ft 3s 3s 13 16 mph 1017.8mb 75f 75f
3:50am 0.7ft  -  3s 13 16 mph 1017.6mb 75f 76f
2:50am 0.7ft  -  4s 11 13 mph 1017.3mb 75f 76f
1:50am 0.7ft  -  4s 4
mph
1017mb 75f 75f
12:50am 0.7ft  -  4s 4
mph
1016.5mb 75f 74f
Fri 08/26 11:50pm 0.7ft  -  4s 4
mph
1016.2mb 75f 74f
10:50pm 0.7ft  -  3s 4
mph
1015.7mb 75f 74f
9:50pm 1ft 5s 3s 7 9 mph 1015.5mb 75f 74f
8:50pm 1ft 3s 3s 9 11 mph 1015.1mb 75f 74f
7:50pm 1ft 3s 3s 9 11 mph 1014.8mb 75f 74f
6:50pm 1.3ft 3s 3s 11 13 mph 1014.7mb 75f 74f
5:50pm 1.3ft 3s 3s 16 18 mph 1014.2mb 75f 76f
4:50pm 1.6ft 3s 3s 16 18 mph 1014.1mb 75f 75f
3:50pm 1.3ft 3s 3s 20 22 mph 1013.7mb 75f 76f
2:50pm 1.3ft 2s 3s 18 20 mph 1014mb 76f 75f
1:50pm 1.6ft 3s 3s 18 22 mph 1014.5mb 76f 76f
12:50pm 1.6ft 3s 3s 18 20 mph 1014.6mb 75f 76f
11:50am 1.6ft 3s 3s 18 20 mph 1014.6mb 75f 76f
10:50am 1.3ft 3s 3s 13 18 mph 1015.1mb 75f 75f
9:50am 1.3ft 3s 3s 16 18 mph 1015.3mb 75f 75f
8:50am 1.3ft 3s 3s 16 20 mph 1015.4mb 75f 75f
7:50am 1.3ft 3s 3s 16 20 mph 1015.7mb 74f 74f
6:50am 1.6ft 3s 3s 16 18 mph 1015.6mb 74f 74f
5:50am 1.3ft 3s 3s 18 22 mph 1015.1mb 74f 74f
4:50am 1.3ft 3s 3s 20 22 mph 1015mb 74f 74f
3:50am 1.3ft 3s 3s 18 20 mph 1015.2mb 75f 74f
2:50am 1.3ft 3s 3s 18 20 mph 1015.7mb 75f 74f
1:50am 1.3ft 3s 3s 18 22 mph 1015.8mb 75f 74f
12:50am 1.6ft 3s 3s 18 22 mph 1016.3mb 74f 74f
Thu 08/25 11:50pm 1.3ft 3s 3s 18 20 mph 1016.6mb 74f 74f
10:50pm 1.3ft 3s 3s 18 20 mph 1016.9mb 74f 74f
9:50pm 1.3ft 3s 3s 16 20 mph 1017.1mb 74f 73f
8:50pm 1.3ft 3s 3s 18 20 mph 1017.2mb 75f 73f
7:50pm 1.3ft 3s 3s 16 18 mph 1017mb 75f 74f
6:50pm 1.6ft 3s 3s 18 20 mph 1016.6mb 75f 74f
5:50pm 1.3ft 3s 3s 18 20 mph 1017mb 75f 74f
4:50pm 1.3ft 3s 3s 18 22 mph 1016.9mb 75f 74f
3:50pm 1.3ft 3s 3s 16 18 mph 1017.7mb 75f 74f
2:50pm 1.3ft 3s 3s 16 18 mph 1018.5mb 75f 74f
1:50pm 1.3ft 3s 3s 18 20 mph 1019mb 75f 74f
12:50pm 1.6ft 3s 3s 18 22 mph 1019.1mb 75f 74f
11:50am 1.3ft 2s 3s 16 20 mph 1019.6mb 74f 74f
10:50am 1.3ft 3s 3s 16 18 mph 1020.2mb 74f 74f
9:50am 1.3ft 3s 3s 16 18 mph 1020.5mb 74f 73f
8:50am 1.3ft 3s 3s 18 20 mph 1020.2mb 74f 74f
7:50am 1.3ft 3s 3s 18 20 mph 1020.3mb 75f 74f
6:50am 1.3ft 3s 3s 16 18 mph 1020.5mb 74f 73f
5:50am 1.3ft 3s 3s 16 18 mph 1020.6mb 74f 73f
4:50am 1.3ft 3s 3s 18 20 mph 1019.8mb 74f 73f
3:50am 1ft 2s 3s 16 20 mph 1020.2mb 75f 73f
2:50am 1ft 2s 3s 16 20 mph 1020.9mb 75f 73f
1:50am 1ft 2s 3s 16 20 mph 1021.1mb 75f 73f
12:50am 1.3ft 3s 3s 18 20 mph 1021.3mb 74f 73f
Wed 08/24 10:50pm 1.3ft 3s 3s 16 18 mph 1021.9mb 73f 73f
9:50pm 1.3ft 3s 3s 16 18 mph 1022.5mb 73f 74f
8:50pm 1.3ft 3s 3s 16 18 mph 1022.3mb 74f 74f
7:50pm 1ft 3s 3s 13 16 mph 1022.2mb 75f 74f
6:50pm 1.3ft 3s 3s 16 20 mph 1021.9mb 75f 74f
5:50pm 1.3ft 3s 3s 13 16 mph 1021.9mb 75f 74f
4:50pm 1.3ft 3s 3s 16 18 mph 1022.3mb 75f 74f
3:50pm 1.3ft 2s 3s 16 20 mph 1022.7mb 75f 74f
2:50pm 1ft 3s 3s 18 20 mph 1023mb 75f 73f
1:50pm 1ft 2s 3s 18 22 mph 1023.2mb 75f 73f
12:50pm 1ft 2s  -  16 18 mph 1023.7mb 75f 73f
11:50am 1.3ft 3s 3s 16 18 mph 1023.9mb 74f 73f